Regional Weather Roundup
Issued by NWS Charleston, SC

Current Version | Previous Version | Graphics & Text | Print | Product List | Glossary On
Versions: 1 2 3 4 5 6 7 8 9 10 11 12 13 14 15 16 17 18 19 20 21 22 23 24 25 26 27 28 29 30 31 32 33 34 35 36 37 38 39 40 41 42 43 44 45 46 47 48 49 50
000
ASUS42 KCHS 280713
RWRCHS

REGIONAL WEATHER ROUNDUP
NATIONAL WEATHER SERVICE CHARLESTON SC
300 AM EDT THU JUL 28 2016

NOTE: "FAIR" INDICATES FEW OR NO CLOUDS BELOW 12,000 FEET WITH NO
SIGNIFICANT WEATHER AND/OR OBSTRUCTIONS TO VISIBILITY.

NOT ALL STATIONS ARE QUALITY CONTROLLED. USE DATA WITH CAUTION...
ESPECIALLY DEWPOINT OBSERVATIONS.

SCZ027-030-031-034>040-042>050-280800-
...SOUTHEAST SOUTH CAROLINA...

CITY           SKY/WX    TMP DP  RH WIND       PRES   REMARKS
N CHARLESTON   PTCLDY    83  78  85 SW8       29.98F HX  93
WATERFRONT PRK   N/A     86  81  85 SW5       29.97S HX 102
MOUNT PLEASANT FAIR      84  81  89 SW7       29.99S HX  98
JOHNS ISLAND   FAIR      86  81  84 SW8       29.99S HX 102
PINOPOLIS        N/A     82  79  89 SW7       29.91S HX  93
MONCKS CORNER  FAIR      79  75  89 SW6       29.98F
SUMMERVILLE    NOT AVBL
BEAUFORT MCAS  CLEAR     82  75  79 SW8       30.00F
BEAUFORT ARPT  FAIR      82  77  83 SW9       30.00F HX  91
HILTON HEAD IS CLEAR     84  77  79 VRB7      30.02S HX  94
WALTERBORO     SUNNY     81  81 100 SW3       30.01S HX  91
ALLENDALE      NOT AVBL

...SOUTHERN MIDLANDS AND PEE DEE...

CITY           SKY/WX    TMP DP  RH WIND       PRES   REMARKS
GEORGETOWN     NOT AVBL
KINGSTREE      FAIR      79  73  83 CALM      29.97S
ORANGEBURG     CLEAR     81  71  71 W6        30.00S
BARNWELL       NOT AVBL
AIKEN          NOT AVBL
MANNING        FAIR      81  73  78 SW5       29.98S
COLUMBIA       CLEAR     83  70  64 SW5       29.98S
SUMTER         PTCLDY    82  71  68 SW9       29.96S
FLORENCE       CLEAR     82  73  74 SW7       29.97R
MYRTLE BEACH   CLEAR     82  72  69 W8        29.98S
N MYRTLE BEACH CLEAR     83  78  85 W6        29.95S HX  93

$$

GAZ063-065-086>088-099>101-113>116-118-119-134>141-150-280800-
...SOUTHEAST GEORGIA...

CITY           SKY/WX    TMP DP  RH WIND       PRES   REMARKS
SAVANNAH ARPT  CLEAR     81  72  74 SW5       30.03R
HUNTER AAF     CLEAR     80  77  90 SW6       30.00S
FORT STEWART   NOT AVBL
STATESBORO     CLEAR     82  73  74 W3        30.02S
SYLVANIA       NOT AVBL
CLAXTON        FAIR      75  74  96 CALM      30.03S

...CSRA...CENTRAL AND FAR SOUTHEAST GEORGIA...

CITY           SKY/WX    TMP DP  RH WIND       PRES   REMARKS
THOMSON        NOT AVBL
AUGUSTA-BUSH   PTCLDY    81  70  69 W6        30.00R
AUGUSTA-DANIEL PTCLDY    84  70  62 VRB3      30.02S
SWAINSBORO     FAIR      79  70  73 W5        30.04S
VIDALIA        CLEAR     77  70  78 CALM      30.04S
EASTMAN        FAIR      80  64  57 CALM      30.07S
HAZLEHURST     FAIR      81  75  81 CALM      30.03F
ALMA           CLEAR     78  72  81 CALM      30.04S
WAYCROSS       CLEAR     81  77  87 W5        30.05S
JESUP          FAIR      73  73 100 CALM      30.04R
BAXLEY         FAIR      77  77 100 CALM      30.04S
BRUNSWICK      CLEAR     82  77  83 SW6       30.05R HX  91
SAINT SIMONS   CLEAR     83  76  79 SW12      30.04S HX  91

$$

SCZ027-028-034-036>038-045-046-048>050-GAZ119-141-280800-
...LAKE AND SUPPLEMENTAL COASTAL OBSERVATIONS...

STATION/POSITION TIME  TEMP    WIND        PRES    WAVE   SWELL
                       AIR SEA DIR/SP/G            HT/PER HT/PER/DIR
                 (UTC) (F)     (DEG/KT/KT) (MB)    (FT/S) (FT/S/D)
WINYAH BAY       0545   84     230/  7     1014.0
LAKE MURRAY      0600   86     250/ 10/ 13 1014.6S
ACE BASIN NERRS  NOT AVBL
FORT PULASKI     0600   84 87  220/  6/ 10 1016.9S
SAPELO ISLAND    0600   83     210/ 10     1017.0S

$$

ANZ835-935-AMZ111-154-330-350-352-354-370-450-454-472-280800-
...C-MAN AND BUOY OBSERVATIONS...

STATION/POSITION TIME  TEMP    WIND        PRES    WAVE   SWELL
                       AIR SEA DIR/SP/G            HT/PER HT/PER/DIR
                 (UTC) (F)     (DEG/KT/KT) (MB)    (FT/S) (FT/S/D)
BUOY 41004       0650   86 86  230/ 17/ 21 1014.6F   4/ 5   2/160/ 8
BUOY 41008       0650   86 87  200/ 16/ 19 1016.2F   3/ 5
FOLLY BEACH CMAN 0600   86     230/ 14/ 19 1015.7F
CAPERS NEARSHORE 0608   85 84  230/ 17/ 21 1015.2F
FRIPP NEARSHORE  0608   87 87  230/ 19/ 25 1015.4F


STATION/POSITION TIME  TEMP    WIND        PRES    WAVE   SWELL
                       AIR SEA DIR/SP/G            HT/PER HT/PER/DIR
                 (UTC) (F)     (DEG/KT/KT) (MB)    (FT/S) (FT/S/D)
5E ST. MARYS GA  0601      86                N/A     3/ 4
FRYING PAN BUOY  0600   85 85  230/ 16/ 19 1014.1F
BUOY 41025       0650   83 84  290/ 10/ 10 1013.2R   3/ 5   3/230/ 5
CAPE LOOKOUT NC  0600   82     280/  5/  5 1013.1R
BUOY 41002       0650   84 85  260/ 12/ 14 1015.8F   3/ 6   2/260/ 6
BUOY 41010       0620   85 87  200/  8/ 10 1017.6F
ST AUGUSTINE FL  0700   81 85  210/  7/  9 1018.4F


$$




USA.gov is the U.S. government's official web portal to all federal, state and local government web resources and services.